| time (UTC) | temp C | wind direction | speed KPH | gust KPH | rain 1hr cm | rain 24hr cm | rain mn cm | humidity % | barometer mb |
| 20260505153308 | 0 | 352 | 1.6 | 4.8 | 0.00 | 0.05 | 0.05 | 96 | 1014.9 |
| 20260505152805 | 0 | 353 | 3.2 | 4.8 | 0.00 | 0.05 | 0.05 | 97 | 1014.9 |
| 20260505152304 | 0 | 351 | 4.8 | 6.4 | 0.00 | 0.05 | 0.05 | 97 | 1015.2 |
| 20260505151801 | 0 | 18 | 1.6 | 4.8 | 0.00 | 0.05 | 0.05 | 96 | 1015.3 |
| 20260505151259 | 0 | 333 | 3.2 | 4.8 | 0.00 | 0.05 | 0.05 | 97 | 1015.2 |
| 20260505150756 | 0 | 278 | 3.2 | 6.4 | 0.00 | 0.05 | 0.05 | 96 | 1014.9 |
| 20260505150253 | 0 | 173 | 3.2 | 6.4 | 0.00 | 0.05 | 0.05 | 96 | 1014.9 |
| 20260505140223 | 0 | 284 | 1.6 | 4.8 | 0.00 | 0.05 | 0.05 | 96 | 1015.4 |
| 20260505130147 | 0 | 309 | 3.2 | 4.8 | 0.00 | 0.05 | 0.05 | 96 | 1014.5 |
| 20260505124637 | 1 | 354 | 3.2 | 4.8 | 0.00 | 0.05 | 0.05 | 96 | 1014.4 |
| 20260505124133 | 1 | 268 | 1.6 | 4.8 | 0.00 | 0.05 | 0.05 | 96 | 1014.3 |
| 20260505123629 | 1 | 9 | 3.2 | 4.8 | 0.00 | 0.05 | 0.05 | 96 | 1014.4 |
| 20260505123126 | 1 | 281 | 1.6 | 4.8 | 0.00 | 0.05 | 0.05 | 96 | 1014.0 |
| 20260505122623 | 1 | 262 | 3.2 | 4.8 | 0.00 | 0.05 | 0.05 | 96 | 1013.9 |
| 20260505122120 | 1 | 322 | 1.6 | 4.8 | 0.00 | 0.05 | 0.05 | 96 | 1013.8 |
| 20260505121616 | 2 | 317 | 3.2 | 4.8 | 0.00 | 0.05 | 0.05 | 96 | 1014.2 |
| 20260505121113 | 2 | 333 | 3.2 | 6.4 | 0.00 | 0.05 | 0.05 | 96 | 1013.9 |
| 20260505120609 | 2 | 322 | 1.6 | 1.6 | 0.00 | 0.05 | 0.05 | 96 | 1013.8 |
| 20260505120105 | 2 | 30 | 3.2 | 4.8 | 0.00 | 0.05 | 0.05 | 96 | 1013.9 |
| 20260505115600 | 2 | 299 | 1.6 | 4.8 | 0.00 | 0.05 | 0.05 | 96 | 1014.0 |
| 20260505115057 | 3 | 234 | 0.0 | 0.0 | 0.00 | 0.05 | 0.05 | 96 | 1014.2 |
| 20260505114555 | 3 | 234 | 1.6 | 1.6 | 0.00 | 0.05 | 0.05 | 96 | 1014.0 |
| 20260505114051 | 3 | 178 | 0.0 | 0.0 | 0.00 | 0.05 | 0.05 | 96 | 1013.9 |
| 20260505113547 | 3 | 223 | 0.0 | 0.0 | 0.00 | 0.05 | 0.05 | 96 | 1014.0 |
| 20260505113044 | 4 | 212 | 4.8 | 6.4 | 0.00 | 0.05 | 0.05 | 96 | 1013.9 |
| 20260505112540 | 4 | 239 | 0.0 | 0.0 | 0.00 | 0.05 | 0.05 | 96 | 1013.5 |
| 20260505112039 | 5 | 234 | 0.0 | 0.0 | 0.00 | 0.05 | 0.05 | 96 | 1013.7 |
| 20260505111538 | 5 | 220 | 0.0 | 0.0 | 0.00 | 0.05 | 0.05 | 96 | 1013.9 |
| 20260505111035 | 5 | 236 | 0.0 | 0.0 | 0.00 | 0.05 | 0.05 | 96 | 1013.8 |
| 20260505110531 | 5 | 237 | 0.0 | 0.0 | 0.00 | 0.05 | 0.05 | 96 | 1013.5 |
| 20260505102003 | 4 | 237 | 0.0 | 0.0 | 0.00 | 0.05 | 0.05 | 96 | 1013.3 |
| 20260505101501 | 4 | 225 | 0.0 | 0.0 | 0.00 | 0.05 | 0.05 | 96 | 1013.2 |
| 20260505100958 | 5 | 184 | 0.0 | 0.0 | 0.00 | 0.05 | 0.05 | 96 | 1012.9 |
| 20260505100455 | 5 | 189 | 4.8 | 6.4 | 0.00 | 0.05 | 0.05 | 96 | 1012.9 |
| 20260505095951 | 5 | 165 | 6.4 | 8.0 | 0.00 | 0.05 | 0.05 | 96 | 1012.8 |
| 20260505095448 | 5 | 184 | 3.2 | 4.8 | 0.00 | 0.05 | 0.05 | 96 | 1012.9 |
| 20260505094944 | 5 | 191 | 1.6 | 1.6 | 0.00 | 0.05 | 0.05 | 96 | 1013.0 |
| 20260505094441 | 5 | 176 | 4.8 | 6.4 | 0.00 | 0.05 | 0.05 | 96 | 1012.9 |
| 20260505093937 | 5 | 186 | 4.8 | 6.4 | 0.00 | 0.05 | 0.05 | 95 | 1012.9 |
| 20260505093434 | 5 | 190 | 1.6 | 4.8 | 0.00 | 0.05 | 0.05 | 95 | 1012.9 |
| 20260505092931 | 5 | 216 | 1.6 | 1.6 | 0.00 | 0.05 | 0.05 | 95 | 1012.7 |
| 20260505092429 | 5 | 220 | 3.2 | 6.4 | 0.00 | 0.05 | 0.05 | 95 | 1013.0 |
| 20260505091926 | 5 | 208 | 3.2 | 4.8 | 0.00 | 0.05 | 0.05 | 95 | 1012.9 |
| 20260505091423 | 5 | 212 | 1.6 | 1.6 | 0.00 | 0.05 | 0.05 | 95 | 1013.0 |
| 20260505090921 | 4 | 222 | 1.6 | 1.6 | 0.00 | 0.05 | 0.05 | 95 | 1012.8 |
| 20260505090419 | 4 | 215 | 0.0 | 0.0 | 0.00 | 0.05 | 0.05 | 95 | 1013.0 |
| 20260505085916 | 4 | 192 | 1.6 | 1.6 | 0.00 | 0.05 | 0.05 | 95 | 1012.9 |
| 20260505085414 | 4 | 186 | 1.6 | 1.6 | 0.00 | 0.05 | 0.05 | 95 | 1012.8 |
| 20260505084912 | 4 | 198 | 1.6 | 1.6 | 0.00 | 0.05 | 0.05 | 95 | 1013.0 |
| 20260505084410 | 4 | 215 | 0.0 | 0.0 | 0.00 | 0.05 | 0.05 | 95 | 1013.3 |
| 20260505083908 | 4 | 226 | 0.0 | 0.0 | 0.00 | 0.05 | 0.05 | 95 | 1013.4 |
| 20260505083405 | 4 | 209 | 0.0 | 1.6 | 0.00 | 0.05 | 0.05 | 95 | 1013.5 |
| 20260505082901 | 4 | 222 | 0.0 | 0.0 | 0.00 | 0.05 | 0.05 | 95 | 1013.5 |
| 20260505082357 | 4 | 222 | 0.0 | 0.0 | 0.00 | 0.05 | 0.05 | 95 | 1013.5 |
| 20260505081854 | 5 | 220 | 0.0 | 0.0 | 0.00 | 0.05 | 0.05 | 95 | 1013.7 |
| 20260505081351 | 5 | 241 | 0.0 | 0.0 | 0.00 | 0.05 | 0.05 | 95 | 1013.8 |
| 20260505080847 | 5 | 241 | 0.0 | 0.0 | 0.00 | 0.05 | 0.05 | 95 | 1013.8 |
| 20260505080343 | 5 | 241 | 0.0 | 0.0 | 0.00 | 0.05 | 0.05 | 95 | 1013.8 |
| 20260505075839 | 5 | 236 | 0.0 | 0.0 | 0.00 | 0.05 | 0.05 | 95 | 1014.2 |
| 20260505075336 | 5 | 231 | 0.0 | 0.0 | 0.00 | 0.05 | 0.05 | 95 | 1013.9 |
| 20260505074833 | 5 | 240 | 0.0 | 0.0 | 0.00 | 0.05 | 0.05 | 95 | 1014.2 |
| 20260505074330 | 5 | 237 | 0.0 | 0.0 | 0.00 | 0.05 | 0.05 | 94 | 1014.3 |
| 20260505073828 | 5 | 244 | 0.0 | 0.0 | 0.00 | 0.05 | 0.05 | 94 | 1014.2 |
| 20260505073326 | 5 | 256 | 0.0 | 0.0 | 0.00 | 0.05 | 0.05 | 94 | 1014.5 |
| 20260505072822 | 5 | 245 | 0.0 | 0.0 | 0.00 | 0.05 | 0.05 | 94 | 1014.4 |
| 20260505072319 | 5 | 272 | 0.0 | 0.0 | 0.00 | 0.05 | 0.05 | 94 | 1014.5 |
| 20260505071814 | 5 | 237 | 0.0 | 0.0 | 0.00 | 0.05 | 0.05 | 93 | 1014.4 |
| 20260505071311 | 5 | 250 | 0.0 | 0.0 | 0.00 | 0.05 | 0.05 | 93 | 1014.5 |
| 20260505070809 | 5 | 278 | 0.0 | 0.0 | 0.00 | 0.05 | 0.05 | 93 | 1014.4 |
| 20260505070305 | 5 | 236 | 0.0 | 0.0 | 0.13 | 0.05 | 0.05 | 92 | 1014.5 |
| 20260505065800 | 5 | 235 | 0.0 | 0.0 | 0.13 | 0.05 | 0.05 | 92 | 1014.7 |
| 20260505065258 | 5 | 267 | 0.0 | 0.0 | 0.00 | 0.03 | 0.03 | 92 | 1014.4 |
| 20260505064755 | 5 | 227 | 0.0 | 0.0 | 0.00 | 0.03 | 0.03 | 92 | 1014.5 |
| 20260505064252 | 5 | 239 | 0.0 | 0.0 | 0.00 | 0.03 | 0.03 | 92 | 1014.8 |
| 20260505063750 | 5 | 248 | 0.0 | 0.0 | 0.00 | 0.03 | 0.03 | 91 | 1014.7 |
| 20260505063246 | 5 | 252 | 0.0 | 0.0 | 0.00 | 0.03 | 0.03 | 91 | 1014.8 |
| 20260505062742 | 5 | 258 | 0.0 | 0.0 | 0.00 | 0.03 | 0.03 | 90 | 1014.5 |
| 20260505062240 | 5 | 242 | 0.0 | 0.0 | 0.00 | 0.03 | 0.03 | 90 | 1014.4 |
| 20260505061737 | 5 | 231 | 0.0 | 0.0 | 0.18 | 0.03 | 0.03 | 90 | 1014.7 |
| 20260505061235 | 5 | 232 | 0.0 | 0.0 | 0.18 | 0.03 | 0.03 | 89 | 1014.5 |
| 20260505060732 | 5 | 233 | 0.0 | 0.0 | 0.00 | 0.00 | 0.00 | 89 | 1014.4 |
| 20260505060229 | 5 | 232 | 0.0 | 0.0 | 0.00 | 0.00 | 0.00 | 89 | 1014.4 |
| 20260505055724 | 5 | 236 | 0.0 | 0.0 | 0.00 | 0.30 | 0.30 | 89 | 1014.8 |
| 20260505055221 | 5 | 235 | 0.0 | 0.0 | 0.00 | 0.30 | 0.30 | 89 | 1014.5 |
| 20260505054718 | 5 | 239 | 0.0 | 0.0 | 0.00 | 0.30 | 0.30 | 89 | 1015.0 |
| 20260505054216 | 5 | 258 | 1.6 | 1.6 | 0.00 | 0.30 | 0.30 | 89 | 1014.8 |
| 20260505053714 | 5 | 305 | 0.0 | 1.6 | 0.00 | 0.30 | 0.30 | 89 | 1014.8 |
| 20260505053210 | 5 | 256 | 0.0 | 0.0 | 0.00 | 0.30 | 0.30 | 89 | 1014.5 |
| 20260505052707 | 5 | 286 | 1.6 | 1.6 | 0.00 | 0.30 | 0.30 | 89 | 1014.8 |
| 20260505052204 | 5 | 306 | 1.6 | 1.6 | 0.00 | 0.30 | 0.30 | 89 | 1014.7 |
| 20260505051701 | 5 | 260 | 0.0 | 0.0 | 0.00 | 0.30 | 0.30 | 89 | 1014.7 |
| 20260505051159 | 5 | 257 | 0.0 | 0.0 | 0.00 | 0.30 | 0.30 | 89 | 1014.9 |
| 20260505050657 | 5 | 253 | 0.0 | 0.0 | 0.00 | 0.30 | 0.30 | 88 | 1014.9 |
| 20260505050155 | 5 | 242 | 0.0 | 0.0 | 0.00 | 0.30 | 0.30 | 88 | 1014.8 |
| 20260505041625 | 5 | 232 | 0.0 | 0.0 | 0.00 | 0.30 | 0.30 | 87 | 1014.7 |
| 20260505041122 | 5 | 231 | 0.0 | 0.0 | 0.00 | 0.30 | 0.30 | 86 | 1014.4 |
| 20260505040619 | 5 | 229 | 0.0 | 0.0 | 0.00 | 0.30 | 0.30 | 86 | 1014.3 |
| 20260505040116 | 5 | 248 | 0.0 | 0.0 | 0.00 | 0.30 | 0.30 | 86 | 1014.4 |
| 20260505035612 | 5 | 267 | 0.0 | 0.0 | 0.00 | 0.30 | 0.30 | 86 | 1014.3 |
| 20260505035109 | 5 | 335 | 3.2 | 4.8 | 0.00 | 0.30 | 0.30 | 86 | 1014.0 |
| 20260505034605 | 5 | 248 | 0.0 | 0.0 | 0.00 | 0.30 | 0.30 | 87 | 1014.2 |
| 20260505034102 | 5 | 245 | 0.0 | 0.0 | 0.00 | 0.30 | 0.30 | 87 | 1014.3 |
| 20260505033559 | 5 | 272 | 3.2 | 4.8 | 0.13 | 0.30 | 0.30 | 87 | 1014.4 |
| 20260505033058 | 5 | 229 | 0.0 | 0.0 | 0.13 | 0.30 | 0.30 | 87 | 1014.0 |
| 20260505032555 | 6 | 239 | 0.0 | 0.0 | 0.00 | 0.28 | 0.28 | 87 | 1014.4 |
| 20260505032051 | 6 | 247 | 0.0 | 1.6 | 0.18 | 0.28 | 0.28 | 86 | 1014.4 |
| 20260505031549 | 6 | 233 | 0.0 | 0.0 | 0.18 | 0.28 | 0.28 | 86 | 1014.5 |
| 20260505031045 | 6 | 244 | 0.0 | 0.0 | 0.48 | 0.25 | 0.25 | 85 | 1013.9 |
| 20260505030542 | 6 | 244 | 0.0 | 0.0 | 0.48 | 0.25 | 0.25 | 85 | 1013.9 |
| 20260505030038 | 6 | 270 | 0.0 | 1.6 | 0.48 | 0.20 | 0.20 | 85 | 1013.7 |
| 20260505025534 | 6 | 228 | 0.0 | 0.0 | 0.43 | 0.18 | 0.18 | 84 | 1014.5 |
| 20260505025033 | 6 | 231 | 0.0 | 0.0 | 0.13 | 0.13 | 0.13 | 84 | 1014.5 |
| 20260505024529 | 6 | 231 | 0.0 | 0.0 | 0.18 | 0.10 | 0.10 | 84 | 1014.3 |
| 20260505024026 | 6 | 237 | 0.0 | 0.0 | 0.18 | 0.10 | 0.10 | 83 | 1014.3 |
| 20260505023523 | 6 | 243 | 0.0 | 0.0 | 0.00 | 0.08 | 0.08 | 83 | 1014.2 |
| 20260505023021 | 6 | 240 | 0.0 | 0.0 | 0.13 | 0.08 | 0.08 | 82 | 1013.9 |
| 20260505022519 | 6 | 231 | 0.0 | 0.0 | 0.13 | 0.08 | 0.08 | 82 | 1014.3 |
| 20260505022016 | 6 | 227 | 0.0 | 0.0 | 0.00 | 0.05 | 0.05 | 81 | 1014.0 |
| 20260505021512 | 6 | 231 | 0.0 | 0.0 | 0.00 | 0.05 | 0.05 | 81 | 1013.8 |
| 20260505021009 | 6 | 231 | 0.0 | 0.0 | 0.00 | 0.05 | 0.05 | 81 | 1013.7 |
| 20260505020509 | 6 | 231 | 0.0 | 0.0 | 0.00 | 0.05 | 0.05 | 81 | 1013.8 |
| 20260505020006 | 6 | 228 | 0.0 | 0.0 | 0.00 | 0.05 | 0.05 | 80 | 1013.9 |
| 20260505015503 | 6 | 228 | 0.0 | 0.0 | 0.00 | 0.05 | 0.05 | 79 | 1013.8 |
| 20260505015000 | 6 | 223 | 0.0 | 0.0 | 0.00 | 0.05 | 0.05 | 79 | 1013.7 |
| 20260505014457 | 6 | 228 | 0.0 | 0.0 | 0.00 | 0.05 | 0.05 | 78 | 1013.7 |
| 20260505013954 | 6 | 235 | 0.0 | 0.0 | 0.00 | 0.05 | 0.05 | 78 | 1013.4 |
| 20260505013451 | 6 | 267 | 0.0 | 1.6 | 0.18 | 0.05 | 0.05 | 77 | 1013.3 |
| 20260505012948 | 7 | 228 | 0.0 | 0.0 | 0.18 | 0.05 | 0.05 | 76 | 1013.7 |
| 20260505012446 | 7 | 234 | 0.0 | 0.0 | 0.13 | 0.03 | 0.03 | 73 | 1013.8 |
| 20260505011943 | 8 | 236 | 0.0 | 1.6 | 0.13 | 0.03 | 0.03 | 70 | 1013.8 |
| 20260505011439 | 9 | 243 | 4.8 | 4.8 | 0.00 | 0.00 | 0.00 | 62 | 1013.5 |
| 20260505010936 | 10 | 231 | 1.6 | 1.6 | 0.00 | 0.00 | 0.00 | 49 | 1013.3 |
| 20260505010432 | 10 | 250 | 1.6 | 1.6 | 0.00 | 0.00 | 0.00 | 50 | 1013.5 |
| 20260505005928 | 10 | 232 | 0.0 | 0.0 | 0.00 | 0.00 | 0.00 | 51 | 1013.4 |
| 20260505005425 | 10 | 246 | 1.6 | 1.6 | 0.00 | 0.00 | 0.00 | 50 | 1013.2 |
| 20260505004922 | 10 | 24 | 4.8 | 6.4 | 0.00 | 0.00 | 0.00 | 49 | 1013.0 |
| 20260505004419 | 10 | 351 | 4.8 | 6.4 | 0.00 | 0.00 | 0.00 | 49 | 1012.9 |
| 20260505003916 | 10 | 351 | 4.8 | 6.4 | 0.00 | 0.00 | 0.00 | 49 | 1012.9 |
| 20260505003413 | 10 | 343 | 6.4 | 8.0 | 0.00 | 0.00 | 0.00 | 48 | 1012.6 |
| 20260505002909 | 10 | 23 | 6.4 | 8.0 | 0.00 | 0.00 | 0.00 | 49 | 1012.4 |
| 20260505002405 | 10 | 341 | 8.0 | 9.7 | 0.00 | 0.00 | 0.00 | 49 | 1012.4 |
| 20260505001904 | 11 | 356 | 9.7 | 14.5 | 0.00 | 0.00 | 0.00 | 44 | 1012.3 |
| 20260505001401 | 11 | 241 | 3.2 | 4.8 | 0.00 | 0.00 | 0.00 | 43 | 1012.6 |
| 20260505000858 | 11 | 262 | 3.2 | 4.8 | 0.00 | 0.00 | 0.00 | 43 | 1012.7 |
| 20260505000358 | 11 | 313 | 8.0 | 8.0 | 0.00 | 0.00 | 0.00 | 43 | 1012.7 |
| 20260504235852 | 11 | 269 | 1.6 | 1.6 | 0.00 | 0.00 | 0.00 | 44 | 1012.6 |
| 20260504235349 | 12 | 104 | 14.5 | 20.9 | 0.00 | 0.00 | 0.00 | 41 | 1012.4 |
| 20260504234846 | 12 | 1 | 8.0 | 9.7 | 0.00 | 0.00 | 0.00 | 37 | 1011.8 |
| 20260504234344 | 12 | 271 | 8.0 | 9.7 | 0.00 | 0.00 | 0.00 | 36 | 1012.1 |
| 20260504233840 | 13 | 196 | 3.2 | 4.8 | 0.00 | 0.00 | 0.00 | 36 | 1011.6 |
| 20260504233335 | 13 | 230 | 0.0 | 0.0 | 0.00 | 0.00 | 0.00 | 36 | 1011.9 |
| 20260504232833 | 13 | 267 | 1.6 | 4.8 | 0.00 | 0.00 | 0.00 | 35 | 1011.7 |
| 20260504232330 | 13 | 294 | 1.6 | 1.6 | 0.00 | 0.00 | 0.00 | 32 | 1011.8 |
| 20260504231826 | 13 | 349 | 6.4 | 9.7 | 0.00 | 0.00 | 0.00 | 32 | 1011.7 |
| 20260504231323 | 13 | 321 | 4.8 | 4.8 | 0.00 | 0.00 | 0.00 | 35 | 1011.8 |
| 20260504230819 | 13 | 344 | 6.4 | 6.4 | 0.00 | 0.00 | 0.00 | 36 | 1012.1 |
| 20260504230317 | 12 | 165 | 4.8 | 4.8 | 0.00 | 0.00 | 0.00 | 38 | 1011.8 |
| 20260504225816 | 13 | 158 | 8.0 | 9.7 | 0.00 | 0.00 | 0.00 | 37 | 1012.1 |
| 20260504225312 | 13 | 200 | 0.0 | 0.0 | 0.00 | 0.00 | 0.00 | 33 | 1011.7 |
| 20260504224809 | 13 | 199 | 1.6 | 1.6 | 0.00 | 0.00 | 0.00 | 32 | 1011.9 |
| 20260504224306 | 13 | 223 | 0.0 | 0.0 | 0.00 | 0.00 | 0.00 | 34 | 1011.7 |
| 20260504223802 | 13 | 176 | 4.8 | 6.4 | 0.00 | 0.00 | 0.00 | 38 | 1011.7 |
| 20260504223258 | 13 | 157 | 3.2 | 4.8 | 0.00 | 0.00 | 0.00 | 34 | 1011.6 |
| 20260504222755 | 14 | 192 | 4.8 | 6.4 | 0.00 | 0.00 | 0.00 | 39 | 1011.4 |
| 20260504222252 | 15 | 227 | 1.6 | 4.8 | 0.00 | 0.00 | 0.00 | 30 | 1011.6 |
| 20260504221750 | 15 | 233 | 0.0 | 0.0 | 0.00 | 0.00 | 0.00 | 30 | 1011.4 |
| 20260504221247 | 15 | 226 | 0.0 | 0.0 | 0.00 | 0.00 | 0.00 | 31 | 1011.6 |
| 20260504220743 | 15 | 240 | 0.0 | 1.6 | 0.00 | 0.00 | 0.00 | 30 | 1011.6 |
| 20260504220240 | 15 | 323 | 4.8 | 6.4 | 0.00 | 0.00 | 0.00 | 30 | 1011.7 |
| 20260504215738 | 15 | 222 | 1.6 | 1.6 | 0.00 | 0.00 | 0.00 | 31 | 1011.4 |
| 20260504215234 | 15 | 33 | 3.2 | 6.4 | 0.00 | 0.00 | 0.00 | 30 | 1011.2 |
| 20260504214730 | 16 | 283 | 4.8 | 6.4 | 0.00 | 0.00 | 0.00 | 27 | 1011.2 |
| 20260504214227 | 16 | 12 | 3.2 | 4.8 | 0.00 | 0.00 | 0.00 | 28 | 1011.2 |
| 20260504213723 | 16 | 336 | 3.2 | 4.8 | 0.00 | 0.00 | 0.00 | 27 | 1011.3 |
| 20260504213220 | 16 | 15 | 6.4 | 8.0 | 0.00 | 0.00 | 0.00 | 25 | 1010.9 |
| 20260504212717 | 16 | 14 | 8.0 | 9.7 | 0.00 | 0.00 | 0.00 | 24 | 1011.3 |
| 20260504212214 | 17 | 8 | 6.4 | 8.0 | 0.00 | 0.00 | 0.00 | 23 | 1011.3 |
| 20260504211711 | 17 | 233 | 0.0 | 0.0 | 0.00 | 0.00 | 0.00 | 23 | 1011.2 |
| 20260504211207 | 16 | 273 | 1.6 | 4.8 | 0.00 | 0.00 | 0.00 | 24 | 1011.3 |
| 20260504210704 | 16 | 290 | 3.2 | 4.8 | 0.00 | 0.00 | 0.00 | 23 | 1011.3 |
| 20260504210201 | 17 | 282 | 4.8 | 6.4 | 0.00 | 0.00 | 0.00 | 22 | 1011.3 |
| 20260504205658 | 17 | 15 | 8.0 | 9.7 | 0.00 | 0.00 | 0.00 | 23 | 1011.6 |
| 20260504205155 | 16 | 1 | 6.4 | 8.0 | 0.00 | 0.00 | 0.00 | 23 | 1011.7 |
| 20260504204654 | 16 | 16 | 6.4 | 8.0 | 0.00 | 0.00 | 0.00 | 25 | 1011.6 |
| 20260504204153 | 16 | 9 | 11.3 | 14.5 | 0.00 | 0.00 | 0.00 | 25 | 1011.6 |
| 20260504203651 | 16 | 347 | 12.9 | 14.5 | 0.00 | 0.00 | 0.00 | 25 | 1011.7 |
| 20260504203148 | 16 | 346 | 8.0 | 8.0 | 0.00 | 0.00 | 0.00 | 26 | 1011.7 |
| 20260504202643 | 16 | 338 | 9.7 | 12.9 | 0.00 | 0.00 | 0.00 | 26 | 1011.9 |
| 20260504202140 | 16 | 3 | 6.4 | 8.0 | 0.00 | 0.00 | 0.00 | 27 | 1011.7 |
| 20260504201637 | 16 | 336 | 6.4 | 6.4 | 0.00 | 0.00 | 0.00 | 27 | 1011.4 |
| 20260504201135 | 16 | 28 | 8.0 | 12.9 | 0.00 | 0.00 | 0.00 | 25 | 1011.6 |
| 20260504200631 | 16 | 15 | 8.0 | 8.0 | 0.00 | 0.00 | 0.00 | 26 | 1011.8 |
| 20260504200128 | 16 | 4 | 11.3 | 14.5 | 0.00 | 0.00 | 0.00 | 26 | 1011.8 |
| 20260504195624 | 16 | 359 | 4.8 | 6.4 | 0.00 | 0.00 | 0.00 | 27 | 1011.8 |
| 20260504195120 | 17 | 8 | 11.3 | 14.5 | 0.00 | 0.00 | 0.00 | 24 | 1011.8 |
| 20260504194617 | 17 | 226 | 0.0 | 0.0 | 0.00 | 0.00 | 0.00 | 20 | 1011.6 |
| 20260504194113 | 17 | 252 | 1.6 | 1.6 | 0.00 | 0.00 | 0.00 | 22 | 1011.7 |
| 20260504193609 | 17 | 229 | 1.6 | 1.6 | 0.00 | 0.00 | 0.00 | 21 | 1011.8 |
| 20260504193108 | 17 | 247 | 0.0 | 1.6 | 0.00 | 0.00 | 0.00 | 22 | 1011.8 |
| 20260504192606 | 17 | 213 | 0.0 | 1.6 | 0.00 | 0.00 | 0.00 | 23 | 1011.9 |
| 20260504192104 | 17 | 230 | 1.6 | 1.6 | 0.00 | 0.00 | 0.00 | 17 | 1011.9 |
| 20260504191602 | 17 | 230 | 1.6 | 1.6 | 0.00 | 0.00 | 0.00 | 18 | 1011.9 |
| 20260504191057 | 18 | 201 | 4.8 | 6.4 | 0.00 | 0.00 | 0.00 | 18 | 1011.7 |